Temperature
18 18 18 18 18 17 17 16 15 15 15 14 13 13 14 14 14 13 13 13 12 12 12 11 11 11 11 11 11 10 10 10 11 11 11 11 11 11 11 11 11 10 10 10
18 18 18 17 17 17 17 17 16 15 14 13 14 13 13 13 13 13 12 12 12 11 11 10 10 10 9 9 9 9 9 9 9 9 9 10 10 10 10 10 10 10 10 10
17 17 17 17 17 17 16 15 15 14 13 13 12 12 13 13 12 12 12 11 11 10 10 9 9 8 8 8 8 7 7 7 7 8 8 8 9 9 9 9 10 10 10 10
15 17 18 16 17 17 16 15 14 13 13 12 12 13 13 13 12 11 11 10 10 9 8 8 8 7 7 6 6 6 6 6 6 6 6 6 7 7 8 8 8 9 9 9
14 16 17 17 17 16 15 13 13 13 12 12 13 11 11 12 11 10 10 9 9 8 7 7 7 6 6 6 6 5 5 5 5 5 5 5 6 6 6 7 7 8 8 8
15 17 17 16 17 17 15 13 13 13 11 12 10 8 9 11 10 10 9 8 8 7 7 7 6 6 5 5 5 5 5 5 5 5 5 5 5 5 5 6 6 7 7 8
15 16 15 16 16 16 15 14 14 13 13 12 10 10 11 10 10 9 8 8 7 7 6 6 6 5 5 5 5 5 5 5 5 5 5 5 5 5 5 5 5 6 6 7
13 15 16 16 15 14 14 15 14 14 13 12 11 11 10 10 9 8 8 7 7 6 6 6 6 5 5 5 5 5 5 5 5 5 5 4 4 4 5 5 5 5 5 6
13 14 15 16 16 16 15 14 14 13 12 12 11 10 9 9 8 8 7 7 6 6 6 6 6 5 5 5 5 5 5 5 5 5 5 4 4 4 4 4 4 5 5 5
13 13 15 16 15 15 14 14 13 12 12 11 10 9 9 8 8 7 7 6 6 5 5 5 6 5 5 5 5 5 5 5 5 5 5 4 4 4 4 4 4 4 5 5
14 14 15 15 15 15 14 13 13 12 11 10 10 9 8 8 7 7 6 6 6 5 5 5 5 5 5 5 5 5 5 5 5 5 4 4 4 4 4 4 4 5 5 5
14 16 14 16 16 15 14 13 12 11 11 10 9 8 8 7 7 7 6 6 6 6 6 5 5 6 6 5 5 5 5 5 5 5 5 5 5 5 5 4 5 5 5 5
19 18 17 16 15 14 14 13 12 11 10 9 9 8 8 7 7 7 7 6 6 6 6 5 5 6 6 6 6 6 5 5 5 5 5 5 5 5 5 5 5 5 5 5
18 17 16 16 15 14 13 12 11 11 10 9 9 8 7 7 7 7 7 6 6 6 6 6 6 6 6 6 6 6 6 6 6 5 5 5 5 5 5 5 5 5 5 6
18 17 17 16 15 14 13 12 11 10 10 9 8 8 7 7 7 7 7 6 6 6 6 6 6 6 6 6 6 6 6 6 6 6 6 6 6 5 5 5 5 5 6 6
18 17 16 15 14 13 12 12 11 10 9 9 8 8 7 7 7 7 7 7 6 6 6 6 6 6 6 6 6 6 6 6 6 6 6 6 6 6 6 5 5 5 6 6
18 17 16 15 14 13 12 11 10 10 9 9 8 8 7 7 7 7 7 7 7 7 6 6 6 6 6 6 6 6 6 6 6 6 6 6 6 6 6 6 6 6 6 6
19 18 17 16 14 13 12 11 10 10 9 9 8 8 7 7 7 7 7 7 7 7 7 7 7 7 7 7 6 6 6 6 6 6 6 6 6 6 6 6 6 6 6 6
18 17 16 15 14 13 12 11 10 10 9 9 8 8 7 7 7 7 7 7 7 7 7 7 7 7 7 7 7 7 7 6 6 6 6 6 6 6 6 6 6 6 6 6
17 17 16 15 14 13 12 11 10 10 9 9 8 8 8 7 7 7 7 7 6 6 7 7 7 7 7 7 7 7 7 7 7 6 6 6 6 6 6 6 6 6 6 6
17 16 15 14 13 12 12 11 10 10 9 9 8 8 7 7 7 7 7 8 7 7 7 7 8 7 8 7 7 7 7 7 7 7 7 7 7 7 7 7 7 7 7 7
17 16 15 14 13 12 12 11 10 10 9 9 8 8 7 7 7 8 7 7 7 7 7 7 8 8 8 8 8 7 7 7 7 7 7 7 7 7 7 7 7 7 8 8
17 16 15 14 13 12 12 11 10 10 9 8 8 8 7 7 7 7 7 7 7 7 7 7 8 8 8 8 8 8 7 7 7 7 7 7 7 7 8 8 8 8 8 9
16 16 15 14 13 12 12 11 11 10 9 8 8 7 7 7 7 7 7 7 7 7 8 8 8 8 8 8 8 8 8 8 8 8 8 8 8 8 8 9 9 9 9 9
16 15 14 14 13 13 12 11 11 10 9 8 8 7 7 7 7 7 7 7 7 7 8 8 8 9 9 9 9 8 8 8 8 8 8 8 8 9 9 9 9 10 10 10
15 15 15 14 14 13 12 12 11 10 9 8 8 8 7 7 7 7 7 7 7 7 8 8 8 9 9 9 9 9 9 9 9 9 9 9 9 9 9 10 10 10 10 10
15 15 15 14 14 13 12 12 11 10 9 8 8 7 7 7 7 7 7 7 7 7 7 8 8 9 9 9 9 9 9 9 9 9 9 9 9 10 10 10 10 10 11 11
Wind_Speed
0 1 3 4 4 4 4 3 4 7 7 7 6 7 8 9 10 10 11 11 11 11 11 11 11 11 11 12 12 12 11 12 13 14 13 12 12 12 12 11 12 12 11 10
2 3 5 4 4 3 1 2 5 6 7 6 6 6 8 10 11 11 11 12 12 12 11 11 11 11 11 11 11 10 11 13 13 13 12 13 13 12 12 11 11 10 11 11
2 2 2 2 2 2 4 5 5 7 7 6 8 9 9 10 11 11 12 12 12 11 12 12 12 12 12 12 12 11 12 13 12 12 13 13 13 12 11 11 11 11 11 11
2 2 3 6 4 4 5 7 6 7 7 8 11 10 10 10 10 11 11 11 12 11 11 11 12 12 12 12 12 13 13 13 13 12 13 12 12 12 11 10 9 10 10 11
3 1 5 3 3 3 4 7 6 6 8 8 9 8 7 9 7 9 10 11 11 11 13 12 13 13 13 13 13 14 14 13 13 12 13 13 12 12 11 10 10 10 8 10
3 1 5 6 3 1 1 6 5 5 8 8 7 7 8 7 8 10 11 10 11 12 13 13 13 13 13 14 14 15 15 14 14 13 13 13 12 12 11 10 11 10 10 9
3 4 7 5 1 2 0 7 3 5 7 7 6 8 9 11 10 9 11 13 13 13 13 13 14 13 14 15 15 15 15 15 14 13 13 13 12 11 11 10 9 9 10 9
4 2 6 4 4 4 8 4 4 5 6 7 9 10 10 10 10 11 12 12 12 12 14 14 13 13 15 15 15 15 14 15 14 13 12 11 10 10 10 9 9 9 8 9
8 7 5 4 7 5 5 4 5 5 7 7 7 8 9 9 10 11 12 12 13 13 15 14 13 12 15 16 15 15 14 14 13 13 11 10 10 9 8 7 7 7 7 7
4 7 6 6 5 3 4 5 5 6 7 6 7 9 10 10 10 11 11 13 13 14 15 16 15 14 14 15 14 14 14 13 12 11 10 9 7 7 7 6 6 6 6 6
5 6 4 6 7 6 4 4 5 5 4 6 7 8 8 9 11 11 12 11 12 14 15 17 16 16 15 14 14 14 13 12 11 9 9 8 7 6 6 6 6 6 6 6
8 8 7 7 6 6 5 5 5 5 5 6 5 8 8 9 10 11 13 13 14 15 16 17 16 16 15 14 13 13 11 11 9 8 7 7 6 5 5 5 6 8 8 6
6 5 7 4 4 5 5 4 3 4 5 6 6 7 8 8 9 11 13 14 14 16 16 16 16 16 15 14 13 12 11 11 8 7 7 6 5 4 3 1 2 1 3 6
5 6 4 5 5 5 3 2 2 3 5 6 6 7 8 8 11 13 14 14 15 15 16 15 16 16 14 13 12 12 11 11 9 7 6 5 4 3 2 1 1 2 4 4
8 7 6 4 4 3 2 1 2 5 6 7 6 8 9 10 12 14 14 14 14 15 15 16 16 16 15 13 12 11 10 8 7 6 5 4 3 2 2 2 2 3 3 5
8 5 5 5 6 4 3 3 4 5 6 6 7 9 10 10 11 12 12 12 14 16 16 16 16 16 15 13 12 9 8 11 9 6 5 4 3 3 3 3 3 3 3 3
9 8 8 7 7 6 5 5 5 5 6 7 8 9 10 10 12 13 14 14 13 13 13 14 16 17 15 12 11 8 7 8 9 6 5 4 3 3 3 3 3 3 3 3
10 10 9 8 7 6 6 5 5 5 5 6 7 8 9 10 12 13 14 15 14 13 13 15 17 17 15 13 10 7 6 5 4 5 4 4 4 3 3 3 4 4 3 3
8 9 9 9 8 7 6 5 5 5 5 5 6 7 8 9 10 11 12 13 14 15 17 18 21 16 15 14 13 6 6 5 4 3 4 4 4 4 4 4 4 4 3 2
8 8 9 8 7 6 5 5 5 4 4 4 5 7 8 9 10 11 11 9 8 11 15 17 16 14 14 13 13 6 5 5 4 4 3 4 4 4 4 4 3 3 3 2
10 9 9 8 7 6 5 5 4 4 4 3 4 6 8 9 9 9 10 10 11 14 16 15 12 13 13 13 11 6 5 5 4 4 3 3 4 4 4 3 3 2 2 2
9 9 9 8 6 5 5 4 4 4 3 4 5 6 7 8 9 9 7 6 11 15 13 10 11 15 17 14 8 7 6 5 5 4 4 4 3 3 3 3 3 3 2 2
8 8 8 8 7 5 4 4 4 4 3 3 4 5 6 7 6 7 9 8 10 15 12 10 16 21 18 10 8 8 7 6 5 4 4 3 3 3 3 3 3 3 2 2
9 9 8 6 5 4 5 6 4 3 3 3 3 4 5 6 5 4 6 10 13 14 10 12 17 19 14 9 9 8 7 7 5 4 4 4 4 4 3 3 3 3 2 2
9 9 8 8 8 7 7 5 4 3 2 2 3 4 4 3 4 6 7 9 12 12 10 12 15 15 11 9 9 9 8 7 7 5 4 4 4 4 3 3 3 3 2 2
10 10 10 10 8 7 6 6 5 4 3 3 3 3 4 4 5 6 6 8 10 11 10 9 10 11 10 9 9 9 8 8 8 7 6 5 4 4 3 3 3 2 2 2
8 7 6 5 5 6 6 7 6 5 5 4 3 2 3 4 5 6 7 7 8 9 9 9 9 9 9 9 9 9 8 8 8 7 7 5 4 4 3 3 3 3 2 3
Wind_Direction
30 20 103 80 57 66 92 162 213 261 263 261 262 277 283 286 291 295 295 293 291 290 290 289 289 288 286 285 285 284 281 277 272 268 265 262 259 254 249 241 239 235 232 231
47 67 87 72 35 52 65 258 256 271 272 254 276 286 285 286 289 291 290 291 292 293 294 292 291 290 290 288 286 285 283 281 279 276 273 269 265 260 254 248 241 233 230 230
213 264 9 285 235 237 254 242 235 249 259 290 295 287 280 284 290 289 289 292 294 294 291 291 290 290 290 288 287 285 282 282 280 279 278 275 273 267 257 251 246 236 232 228
121 72 259 250 231 222 243 248 228 239 263 278 270 276 278 278 280 284 289 293 294 293 292 291 290 291 290 291 290 288 287 286 284 282 279 275 271 268 263 257 249 242 237 230
111 228 286 266 235 217 244 270 220 238 268 278 293 315 292 277 278 281 288 290 290 290 293 293 295 295 297 297 295 293 291 288 286 282 281 278 272 268 265 260 255 247 241 232
120 192 256 248 238 285 181 287 229 237 273 288 318 321 293 293 306 300 297 295 294 295 297 299 298 299 300 300 298 296 293 290 286 280 276 274 270 268 263 258 254 251 247 236
154 229 264 249 256 70 207 272 251 246 269 283 268 252 275 300 301 292 292 295 297 300 302 301 302 303 303 302 300 298 296 293 289 282 275 271 268 264 260 254 251 246 247 242
155 214 270 213 147 186 226 252 266 269 272 273 270 277 289 297 297 300 301 302 303 305 306 306 305 305 306 306 305 303 300 297 293 286 281 280 267 264 260 250 245 243 243 245
188 214 241 219 208 218 191 229 259 262 275 281 284 288 295 294 296 300 302 305 308 308 310 311 310 308 308 309 309 308 305 301 299 294 285 279 273 268 263 247 238 236 231 235
234 259 239 229 232 234 210 229 259 269 281 281 282 288 295 296 299 305 306 311 311 314 317 318 317 315 310 310 311 311 308 307 305 301 295 288 276 265 258 246 230 224 228 225
243 266 262 252 234 230 238 252 274 286 279 279 282 290 291 298 304 308 312 312 313 318 319 318 319 318 316 315 315 315 313 311 311 307 302 298 289 270 259 247 232 222 222 216
219 216 196 236 229 206 220 247 265 279 291 294 284 285 294 300 303 308 314 317 320 321 321 320 319 318 318 319 319 318 318 317 316 312 308 305 301 297 269 252 250 237 231 221
208 191 186 220 197 188 208 237 258 271 282 291 293 291 296 299 302 309 316 321 323 322 320 319 319 319 322 323 323 321 318 316 315 317 316 313 313 312 318 19 62 83 234 228
184 144 176 205 202 198 204 234 278 301 299 290 287 297 303 302 309 318 322 322 321 320 320 321 322 323 324 325 324 322 321 319 323 319 320 319 321 325 329 25 71 64 50 71
192 184 194 193 173 172 181 221 287 304 303 302 298 304 311 314 317 318 319 320 322 324 326 327 326 327 328 327 325 324 324 323 325 328 332 334 339 354 22 70 86 88 84 72
183 178 174 176 195 203 206 240 266 284 292 294 301 309 312 311 311 314 319 324 329 329 327 327 328 329 329 329 327 325 324 330 341 341 346 357 10 35 60 79 88 93 94 101
153 184 199 208 213 213 219 232 243 263 280 290 299 307 315 320 324 328 330 330 326 321 322 329 331 331 331 331 328 324 324 331 342 348 356 5 20 42 69 87 91 93 92 93
182 183 179 183 190 204 224 241 252 265 271 283 303 313 320 325 325 325 327 328 329 331 337 338 335 334 332 334 333 327 327 330 340 348 359 15 27 45 73 86 90 92 90 93
175 173 175 178 179 184 205 229 246 259 276 293 308 312 311 312 314 319 325 331 337 341 339 336 331 335 336 338 341 334 336 339 348 0 11 23 36 50 68 79 82 85 90 92
172 168 169 175 178 185 205 226 239 257 276 293 306 314 320 322 324 327 330 328 331 334 329 329 333 339 339 338 341 339 347 352 359 8 21 34 45 55 66 75 81 87 87 87
176 170 172 180 192 206 214 219 222 251 275 295 304 309 313 317 323 329 334 336 337 339 336 331 340 343 340 337 337 348 357 3 7 17 33 49 57 64 71 77 78 76 75 74
176 174 180 185 194 216 229 221 222 243 266 293 306 313 319 323 327 328 320 319 328 334 338 339 344 342 343 343 354 1 8 16 21 28 43 53 59 68 74 78 72 68 64 60
174 176 181 190 198 214 228 220 222 231 248 276 298 311 313 312 316 327 333 330 334 335 338 341 341 342 348 358 2 6 13 19 23 29 38 49 59 67 75 77 74 73 62 50
175 177 185 187 180 196 222 227 221 224 238 263 284 301 308 315 316 306 309 318 332 335 340 339 342 348 355 5 6 7 10 11 13 18 31 46 60 68 73 76 75 72 64 53
184 180 182 183 195 213 219 210 200 213 227 261 291 311 317 304 301 314 324 333 339 343 345 344 349 354 3 6 7 7 5 6 7 11 25 38 50 63 71 75 75 75 68 54
193 195 200 202 200 198 189 181 188 201 205 237 273 302 319 321 319 324 333 341 347 347 351 353 356 359 4 5 6 6 5 2 5 10 14 20 32 45 57 68 73 65 60 53
210 205 198 198 197 189 182 180 186 193 194 203 234 287 316 325 332 341 347 352 355 356 357 358 360 3 4 5 6 7 8 7 5 4 6 10 15 21 32 49 52 49 46 48
Height
1513 1510 1509 1512 1513 1513 1516 1518 1524 1519 1516 1511 1509 1507 1504 1501 1498 1495 1492 1488 1485 1480 1476 1471 1467 1462 1457 1453 1448 1444 1440 1436 1432 1429 1427 1424 1423 1422 1421 1420 1420 1421 1421 1422
1514 1512 1512 1516 1514 1513 1514 1514 1515 1515 1514 1507 1506 1504 1502 1498 1495 1491 1488 1484 1480 1475 1470 1465 1460 1454 1449 1444 1440 1435 1431 1426 1423 1419 1416 1414 1412 1411 1410 1410 1411 1411 1412 1413
1522 1515 1517 1522 1516 1514 1514 1512 1513 1516 1512 1505 1504 1501 1499 1494 1491 1487 1483 1479 1474 1469 1464 1458 1453 1447 1441 1436 1431 1426 1421 1417 1413 1409 1406 1403 1402 1401 1400 1400 1401 1402 1403 1404
1525 1522 1527 1519 1509 1509 1510 1509 1508 1508 1506 1504 1501 1498 1495 1491 1488 1483 1479 1474 1468 1463 1457 1451 1446 1440 1434 1428 1423 1417 1412 1407 1403 1400 1396 1393 1391 1390 1390 1390 1391 1392 1393 1395
1528 1526 1522 1514 1508 1508 1511 1510 1505 1505 1503 1501 1497 1494 1490 1488 1484 1480 1475 1469 1464 1457 1451 1444 1438 1432 1426 1420 1414 1409 1404 1399 1395 1391 1387 1384 1382 1380 1380 1380 1380 1382 1384 1386
1526 1524 1527 1514 1505 1504 1508 1510 1503 1502 1500 1498 1496 1496 1488 1483 1480 1475 1470 1464 1458 1451 1444 1437 1431 1425 1418 1412 1406 1401 1395 1390 1386 1382 1378 1375 1373 1371 1370 1370 1371 1372 1374 1376
1523 1525 1519 1506 1503 1505 1514 1510 1500 1499 1497 1495 1493 1491 1484 1480 1475 1470 1465 1458 1452 1445 1438 1431 1424 1418 1412 1405 1399 1394 1388 1383 1378 1374 1370 1367 1364 1363 1362 1361 1362 1363 1365 1368
1526 1525 1519 1502 1502 1505 1504 1498 1497 1496 1494 1492 1489 1485 1481 1476 1471 1465 1459 1452 1445 1438 1431 1425 1419 1412 1405 1399 1393 1387 1381 1375 1371 1366 1363 1360 1357 1355 1354 1354 1354 1355 1357 1360
1513 1511 1501 1498 1498 1498 1497 1496 1495 1493 1491 1488 1485 1481 1477 1472 1466 1460 1454 1447 1440 1433 1426 1419 1413 1407 1400 1393 1387 1381 1375 1369 1364 1360 1356 1353 1351 1349 1347 1347 1348 1349 1351 1353
1504 1499 1496 1496 1495 1495 1494 1493 1492 1491 1488 1485 1482 1478 1473 1468 1462 1455 1449 1442 1435 1428 1421 1414 1408 1402 1396 1389 1383 1376 1370 1365 1360 1355 1351 1348 1345 1343 1342 1342 1342 1344 1346 1348
1500 1495 1494 1493 1492 1492 1491 1491 1489 1488 1485 1482 1479 1474 1470 1464 1458 1451 1444 1437 1431 1424 1417 1410 1404 1397 1391 1385 1379 1373 1367 1362 1357 1352 1348 1344 1341 1340 1338 1338 1338 1340 1341 1344
1495 1489 1490 1489 1488 1489 1489 1488 1486 1484 1482 1479 1476 1471 1466 1461 1455 1448 1441 1434 1427 1420 1414 1407 1400 1394 1388 1382 1376 1370 1364 1359 1354 1350 1346 1342 1339 1337 1335 1335 1335 1337 1338 1341
1485 1485 1486 1486 1486 1486 1486 1485 1484 1482 1479 1476 1472 1468 1463 1457 1451 1445 1438 1431 1424 1418 1411 1404 1397 1390 1384 1378 1373 1368 1363 1358 1354 1349 1345 1341 1338 1336 1335 1334 1334 1336 1337 1339
1482 1483 1483 1483 1483 1483 1483 1482 1481 1479 1476 1473 1470 1465 1460 1454 1448 1442 1435 1429 1422 1415 1409 1402 1395 1388 1382 1376 1371 1367 1362 1358 1353 1349 1345 1342 1339 1337 1336 1335 1335 1336 1338 1340
1479 1480 1481 1481 1481 1481 1481 1480 1478 1476 1473 1470 1467 1462 1457 1451 1445 1439 1433 1426 1420 1413 1407 1400 1393 1386 1380 1375 1370 1366 1361 1357 1354 1350 1347 1343 1341 1339 1338 1337 1337 1338 1340 1341
1475 1477 1478 1478 1478 1478 1478 1477 1475 1473 1471 1467 1464 1459 1454 1449 1443 1437 1431 1424 1418 1411 1405 1398 1392 1385 1379 1374 1369 1365 1361 1358 1355 1351 1348 1346 1343 1341 1340 1340 1340 1341 1342 1343
1472 1473 1474 1475 1475 1476 1475 1474 1473 1471 1468 1465 1461 1457 1452 1447 1441 1435 1429 1423 1417 1411 1404 1398 1391 1385 1379 1374 1369 1365 1361 1358 1356 1353 1350 1348 1346 1345 1344 1344 1344 1344 1345 1346
1468 1470 1471 1472 1473 1473 1473 1472 1470 1468 1466 1463 1459 1455 1450 1444 1439 1433 1427 1421 1415 1409 1404 1397 1391 1385 1379 1374 1369 1365 1362 1359 1357 1355 1353 1351 1349 1348 1348 1347 1348 1348 1349 1349
1465 1467 1468 1469 1470 1470 1469 1469 1468 1466 1464 1461 1457 1453 1448 1443 1438 1432 1427 1420 1414 1407 1402 1396 1391 1385 1379 1374 1370 1366 1363 1360 1358 1356 1355 1354 1353 1352 1351 1351 1351 1352 1352 1353
1463 1464 1466 1466 1467 1467 1467 1466 1465 1463 1461 1458 1455 1451 1446 1441 1436 1431 1425 1420 1415 1409 1403 1397 1391 1386 1381 1376 1372 1368 1365 1362 1360 1359 1357 1357 1356 1355 1355 1355 1355 1355 1356 1356
1460 1461 1463 1464 1465 1465 1464 1464 1463 1461 1459 1456 1453 1449 1444 1440 1435 1430 1424 1418 1414 1409 1404 1398 1393 1387 1382 1378 1374 1370 1368 1365 1363 1361 1360 1360 1359 1359 1359 1359 1359 1359 1360 1360
1457 1459 1461 1462 1462 1463 1462 1461 1460 1459 1457 1454 1451 1447 1443 1438 1433 1429 1424 1420 1414 1409 1404 1399 1394 1389 1385 1381 1377 1374 1371 1368 1366 1365 1364 1363 1363 1363 1363 1364 1364 1364 1365 1365
1454 1457 1458 1459 1460 1460 1460 1459 1458 1457 1455 1452 1449 1445 1441 1437 1432 1427 1422 1419 1414 1410 1405 1401 1396 1392 1388 1384 1380 1378 1375 1373 1371 1369 1368 1368 1368 1368 1368 1369 1370 1370 1371 1372
1451 1453 1455 1456 1457 1457 1456 1456 1455 1454 1452 1450 1447 1444 1440 1436 1431 1427 1423 1418 1414 1410 1406 1402 1398 1394 1390 1387 1384 1381 1379 1377 1376 1374 1373 1373 1373 1373 1374 1375 1375 1377 1377 1378
1447 1448 1450 1450 1450 1451 1452 1452 1451 1451 1450 1448 1445 1442 1438 1434 1430 1426 1422 1418 1414 1410 1407 1403 1400 1396 1392 1389 1387 1385 1383 1381 1380 1379 1379 1378 1378 1379 1379 1380 1381 1382 1383 1384
1442 1442 1442 1443 1444 1446 1447 1447 1447 1447 1446 1445 1443 1440 1437 1433 1429 1425 1421 1417 1413 1410 1407 1404 1401 1397 1394 1392 1390 1388 1386 1385 1384 1383 1383 1383 1383 1384 1385 1386 1387 1388 1389 1390
1436 1436 1437 1437 1438 1439 1441 1441 1442 1442 1442 1441 1440 1438 1435 1432 1428 1424 1420 1416 1413 1410 1407 1404 1402 1399 1396 1394 1392 1390 1389 1388 1387 1387 1386 1386 1387 1388 1389 1390 1391 1392 1393 1394